| time (UTC) | temp F | wind direction | speed MPH | gust MPH | rain 1hr in | rain 24hr in | rain mn in | humidity % | barometer mb |
| 20260416140620 | 78 | 35 | 1.0 | 3.0 | 0.00 | 0.00 | 0.00 | 40 | 1020.2 |
| 20260416140121 | 79 | 8 | 2.0 | 3.0 | 0.00 | 0.00 | 0.00 | 39 | 1020.3 |
| 20260416135622 | 81 | 285 | 1.0 | 2.0 | 0.00 | 0.00 | 0.00 | 39 | 1020.4 |
| 20260416135124 | 83 | 61 | 1.0 | 5.0 | 0.00 | 0.00 | 0.00 | 38 | 1020.4 |
| 20260416134625 | 84 | 335 | 3.0 | 8.0 | 0.00 | 0.00 | 0.00 | 37 | 1020.4 |
| 20260416134127 | 86 | 31 | 2.0 | 6.0 | 0.00 | 0.00 | 0.00 | 37 | 1020.5 |
| 20260416133628 | 87 | 23 | 2.0 | 4.0 | 0.00 | 0.00 | 0.00 | 36 | 1020.5 |
| 20260416133130 | 86 | 331 | 2.0 | 7.0 | 0.00 | 0.00 | 0.00 | 36 | 1020.4 |
| 20260416132631 | 85 | 56 | 3.0 | 7.0 | 0.00 | 0.00 | 0.00 | 36 | 1020.5 |
| 20260416132133 | 83 | 15 | 3.0 | 8.0 | 0.00 | 0.00 | 0.00 | 37 | 1020.5 |
| 20260416131634 | 77 | 319 | 2.0 | 7.0 | 0.00 | 0.00 | 0.00 | 40 | 1020.5 |
| 20260416131135 | 72 | 320 | 3.0 | 6.0 | 0.00 | 0.00 | 0.00 | 43 | 1020.5 |
| 20260416130637 | 71 | 301 | 3.0 | 4.0 | 0.00 | 0.00 | 0.00 | 43 | 1020.5 |
| 20260416130138 | 72 | 41 | 1.0 | 3.0 | 0.00 | 0.00 | 0.00 | 43 | 1020.6 |
| 20260416125640 | 72 | 276 | 1.0 | 4.0 | 0.00 | 0.00 | 0.00 | 43 | 1020.6 |
| 20260416125141 | 73 | 60 | 1.0 | 4.0 | 0.00 | 0.00 | 0.00 | 43 | 1020.5 |
| 20260416124643 | 74 | 24 | 1.0 | 3.0 | 0.00 | 0.00 | 0.00 | 43 | 1020.6 |
| 20260416124144 | 75 | 65 | 1.0 | 5.0 | 0.00 | 0.00 | 0.00 | 43 | 1020.6 |
| 20260416123646 | 76 | 43 | 1.0 | 3.0 | 0.00 | 0.00 | 0.00 | 42 | 1020.6 |
| 20260416123147 | 77 | 43 | 1.0 | 4.0 | 0.00 | 0.00 | 0.00 | 42 | 1020.6 |
| 20260416122649 | 79 | 348 | 3.0 | 7.0 | 0.00 | 0.00 | 0.00 | 41 | 1020.7 |
| 20260416122150 | 80 | 345 | 2.0 | 6.0 | 0.00 | 0.00 | 0.00 | 41 | 1020.7 |
| 20260416121652 | 81 | 22 | 2.0 | 6.0 | 0.00 | 0.00 | 0.00 | 40 | 1020.7 |
| 20260416121153 | 83 | 261 | 2.0 | 5.0 | 0.00 | 0.00 | 0.00 | 40 | 1020.7 |
| 20260416120655 | 84 | 279 | 3.0 | 6.0 | 0.00 | 0.00 | 0.00 | 39 | 1020.7 |
| 20260416120156 | 86 | 274 | 3.0 | 10.0 | 0.00 | 0.00 | 0.00 | 38 | 1020.8 |
| 20260416110214 | 77 | 313 | 8.0 | 12.0 | 0.00 | 0.00 | 0.00 | 45 | 1021.1 |
| 20260416102225 | 79 | 264 | 4.0 | 9.0 | 0.00 | 0.00 | 0.00 | 45 | 1021.0 |
| 20260416101727 | 77 | 287 | 5.0 | 11.0 | 0.00 | 0.00 | 0.00 | 46 | 1021.0 |
| 20260416101228 | 77 | 304 | 5.0 | 9.0 | 0.00 | 0.00 | 0.00 | 46 | 1021.0 |
| 20260416100730 | 78 | 291 | 5.0 | 10.0 | 0.00 | 0.00 | 0.00 | 46 | 1021.1 |
| 20260416100231 | 79 | 277 | 3.0 | 7.0 | 0.00 | 0.00 | 0.00 | 46 | 1021.0 |
| 20260416095733 | 80 | 271 | 5.0 | 10.0 | 0.00 | 0.00 | 0.00 | 46 | 1021.1 |
| 20260416095234 | 81 | 303 | 5.0 | 14.0 | 0.00 | 0.00 | 0.00 | 45 | 1021.1 |
| 20260416094736 | 81 | 233 | 4.0 | 9.0 | 0.00 | 0.00 | 0.00 | 45 | 1021.2 |
| 20260416094237 | 79 | 312 | 3.0 | 7.0 | 0.00 | 0.00 | 0.00 | 47 | 1021.1 |
| 20260416093739 | 76 | 260 | 2.0 | 3.0 | 0.00 | 0.00 | 0.00 | 48 | 1021.1 |
| 20260416093240 | 75 | 302 | 3.0 | 5.0 | 0.00 | 0.00 | 0.00 | 49 | 1021.2 |
| 20260416092742 | 73 | 278 | 4.0 | 7.0 | 0.00 | 0.00 | 0.00 | 50 | 1021.2 |
| 20260416092243 | 73 | 246 | 3.0 | 6.0 | 0.00 | 0.00 | 0.00 | 50 | 1021.3 |
| 20260416091744 | 73 | 258 | 5.0 | 9.0 | 0.00 | 0.00 | 0.00 | 50 | 1021.2 |
| 20260416091246 | 73 | 261 | 4.0 | 9.0 | 0.00 | 0.00 | 0.00 | 50 | 1021.3 |
| 20260416090747 | 73 | 292 | 4.0 | 9.0 | 0.00 | 0.00 | 0.00 | 50 | 1021.3 |
| 20260416090249 | 71 | 290 | 5.0 | 8.0 | 0.00 | 0.00 | 0.00 | 51 | 1021.2 |
| 20260416085750 | 69 | 272 | 5.0 | 9.0 | 0.00 | 0.00 | 0.00 | 53 | 1021.1 |
| 20260416085252 | 66 | 267 | 4.0 | 10.0 | 0.00 | 0.00 | 0.00 | 54 | 1021.2 |
| 20260416084753 | 64 | 263 | 4.0 | 7.0 | 0.00 | 0.00 | 0.00 | 56 | 1021.2 |
| 20260416084255 | 63 | 258 | 3.0 | 9.0 | 0.00 | 0.00 | 0.00 | 56 | 1021.1 |
| 20260416083756 | 62 | 267 | 4.0 | 9.0 | 0.00 | 0.00 | 0.00 | 57 | 1021.1 |
| 20260416083258 | 61 | 227 | 4.0 | 9.0 | 0.00 | 0.00 | 0.00 | 58 | 1021.1 |
| 20260416082759 | 60 | 237 | 4.0 | 7.0 | 0.00 | 0.00 | 0.00 | 58 | 1021.2 |
| 20260416082300 | 60 | 265 | 4.0 | 8.0 | 0.00 | 0.00 | 0.00 | 58 | 1021.2 |
| 20260416081802 | 59 | 261 | 4.0 | 7.0 | 0.00 | 0.00 | 0.00 | 59 | 1021.2 |
| 20260416081303 | 59 | 273 | 4.0 | 9.0 | 0.00 | 0.00 | 0.00 | 59 | 1021.2 |
| 20260416080805 | 58 | 284 | 4.0 | 7.0 | 0.00 | 0.00 | 0.00 | 59 | 1021.1 |
| 20260416080306 | 58 | 253 | 1.0 | 3.0 | 0.00 | 0.00 | 0.00 | 60 | 1021.1 |
| 20260416075808 | 57 | 249 | 2.0 | 6.0 | 0.00 | 0.00 | 0.00 | 60 | 1021.1 |
| 20260416075309 | 57 | 261 | 3.0 | 5.0 | 0.00 | 0.00 | 0.00 | 60 | 1021.1 |
| 20260416074811 | 56 | 230 | 2.0 | 6.0 | 0.00 | 0.00 | 0.00 | 60 | 1021.1 |
| 20260416074312 | 56 | 240 | 4.0 | 7.0 | 0.00 | 0.00 | 0.00 | 60 | 1021.1 |
| 20260416073814 | 56 | 230 | 2.0 | 4.0 | 0.00 | 0.00 | 0.00 | 60 | 1021.1 |
| 20260416073315 | 55 | 224 | 2.0 | 3.0 | 0.00 | 0.00 | 0.00 | 61 | 1021.1 |
| 20260416072816 | 55 | 239 | 2.0 | 5.0 | 0.00 | 0.00 | 0.00 | 61 | 1021.1 |
| 20260416072318 | 55 | 231 | 2.0 | 4.0 | 0.00 | 0.00 | 0.00 | 61 | 1021.1 |
| 20260416071819 | 55 | 231 | 3.0 | 6.0 | 0.00 | 0.00 | 0.00 | 61 | 1021.1 |
| 20260416071321 | 55 | 210 | 2.0 | 6.0 | 0.00 | 0.00 | 0.00 | 61 | 1021.1 |
| 20260416070822 | 55 | 225 | 2.0 | 4.0 | 0.00 | 0.00 | 0.00 | 61 | 1021.1 |
| 20260416070324 | 55 | 227 | 1.0 | 2.0 | 0.00 | 0.00 | 0.00 | 61 | 1021.2 |
| 20260416064330 | 55 | 237 | 2.0 | 3.0 | 0.00 | 0.00 | 0.00 | 60 | 1021.1 |
| 20260416063831 | 55 | 264 | 2.0 | 4.0 | 0.00 | 0.00 | 0.00 | 60 | 1021.1 |
| 20260416063333 | 54 | 181 | 0.0 | 0.0 | 0.00 | 0.00 | 0.00 | 60 | 1021.1 |
| 20260416062834 | 54 | 212 | 0.0 | 1.0 | 0.00 | 0.00 | 0.00 | 60 | 1021.1 |
| 20260416062336 | 54 | 231 | 1.0 | 3.0 | 0.00 | 0.00 | 0.00 | 60 | 1021.1 |
| 20260416061837 | 54 | 223 | 1.0 | 3.0 | 0.00 | 0.00 | 0.00 | 60 | 1021.1 |
| 20260416061339 | 54 | 222 | 0.0 | 2.0 | 0.00 | 0.00 | 0.00 | 60 | 1021.0 |
| 20260416060840 | 54 | 228 | 1.0 | 3.0 | 0.00 | 0.00 | 0.00 | 61 | 1021.0 |
| 20260416060342 | 53 | 233 | 1.0 | 2.0 | 0.00 | 0.00 | 0.00 | 61 | 1021.0 |
| 20260416055843 | 53 | 234 | 1.0 | 3.0 | 0.00 | 0.00 | 0.00 | 61 | 1021.0 |
| 20260416055344 | 53 | 183 | 0.0 | 1.0 | 0.00 | 0.00 | 0.00 | 61 | 1020.9 |
| 20260416054846 | 53 | 243 | 1.0 | 3.0 | 0.00 | 0.00 | 0.00 | 61 | 1020.9 |
| 20260416054347 | 53 | 212 | 1.0 | 3.0 | 0.00 | 0.00 | 0.00 | 61 | 1021.0 |
| 20260416053849 | 53 | 198 | 0.0 | 1.0 | 0.00 | 0.00 | 0.00 | 61 | 1021.0 |
| 20260416053350 | 53 | 252 | 1.0 | 3.0 | 0.00 | 0.00 | 0.00 | 61 | 1020.9 |
| 20260416052852 | 52 | 267 | 1.0 | 3.0 | 0.00 | 0.00 | 0.00 | 61 | 1020.8 |
| 20260416052353 | 52 | 293 | 1.0 | 3.0 | 0.00 | 0.00 | 0.00 | 61 | 1020.8 |
| 20260416051855 | 52 | 303 | 1.0 | 2.0 | 0.00 | 0.00 | 0.00 | 61 | 1020.8 |
| 20260416051356 | 52 | 289 | 1.0 | 2.0 | 0.00 | 0.00 | 0.00 | 61 | 1020.6 |
| 20260416050858 | 51 | 330 | 1.0 | 4.0 | 0.00 | 0.00 | 0.00 | 61 | 1020.6 |
| 20260416050359 | 51 | 322 | 1.0 | 4.0 | 0.00 | 0.00 | 0.00 | 61 | 1020.5 |
| 20260416045901 | 51 | 16 | 1.0 | 3.0 | 0.00 | 0.00 | 0.00 | 61 | 1020.5 |
| 20260416045402 | 51 | 253 | 1.0 | 2.0 | 0.00 | 0.00 | 0.00 | 61 | 1020.4 |
| 20260416044904 | 50 | 256 | 1.0 | 3.0 | 0.00 | 0.00 | 0.00 | 61 | 1020.4 |
| 20260416044405 | 50 | 235 | 1.0 | 2.0 | 0.00 | 0.00 | 0.00 | 61 | 1020.3 |
| 20260416043907 | 49 | 239 | 1.0 | 2.0 | 0.00 | 0.00 | 0.00 | 61 | 1020.2 |
| 20260416043408 | 49 | 240 | 0.0 | 2.0 | 0.00 | 0.00 | 0.00 | 61 | 1020.2 |
| 20260416042909 | 49 | 357 | 0.0 | 1.0 | 0.00 | 0.00 | 0.00 | 61 | 1020.3 |
| 20260416042411 | 49 | 105 | 0.0 | 0.0 | 0.00 | 0.00 | 0.00 | 61 | 1020.3 |
| 20260416041912 | 49 | 199 | 0.0 | 2.0 | 0.00 | 0.00 | 0.00 | 61 | 1020.3 |
| 20260416041415 | 49 | 201 | 0.0 | 2.0 | 0.00 | 0.00 | 0.00 | 61 | 1020.2 |
| 20260416040915 | 49 | 180 | 0.0 | 1.0 | 0.00 | 0.00 | 0.00 | 61 | 1020.2 |
| 20260416040417 | 49 | 161 | 0.0 | 0.0 | 0.00 | 0.00 | 0.00 | 61 | 1020.2 |
| 20260416035918 | 49 | 135 | 0.0 | 0.0 | 0.00 | 0.00 | 0.00 | 61 | 1020.2 |
| 20260416035420 | 49 | 135 | 0.0 | 0.0 | 0.00 | 0.00 | 0.00 | 61 | 1020.2 |
| 20260416034922 | 49 | 135 | 0.0 | 0.0 | 0.00 | 0.00 | 0.00 | 60 | 1020.2 |
| 20260416034423 | 49 | 135 | 0.0 | 0.0 | 0.00 | 0.00 | 0.00 | 60 | 1020.1 |
| 20260416033924 | 50 | 135 | 0.0 | 0.0 | 0.00 | 0.00 | 0.00 | 60 | 1020.0 |
| 20260416033426 | 50 | 135 | 0.0 | 0.0 | 0.00 | 0.00 | 0.00 | 60 | 1020.0 |
| 20260416032927 | 51 | 135 | 0.0 | 0.0 | 0.00 | 0.00 | 0.00 | 59 | 1020.0 |
| 20260416032429 | 51 | 135 | 0.0 | 0.0 | 0.00 | 0.00 | 0.00 | 59 | 1020.0 |
| 20260416031930 | 52 | 135 | 0.0 | 0.0 | 0.00 | 0.00 | 0.00 | 59 | 1020.1 |
| 20260416031432 | 52 | 138 | 0.0 | 0.0 | 0.00 | 0.00 | 0.00 | 59 | 1020.1 |
| 20260416030933 | 53 | 180 | 0.0 | 0.0 | 0.00 | 0.00 | 0.00 | 58 | 1020.1 |
| 20260416030435 | 53 | 139 | 0.0 | 1.0 | 0.00 | 0.00 | 0.00 | 58 | 1020.0 |
| 20260416025936 | 53 | 135 | 0.0 | 0.0 | 0.00 | 0.00 | 0.00 | 58 | 1020.1 |
| 20260416025437 | 53 | 152 | 0.0 | 0.0 | 0.00 | 0.00 | 0.00 | 58 | 1020.1 |
| 20260416024939 | 53 | 180 | 0.0 | 0.0 | 0.00 | 0.00 | 0.00 | 58 | 1020.1 |
| 20260416024440 | 53 | 203 | 0.0 | 0.0 | 0.00 | 0.00 | 0.00 | 58 | 1020.2 |
| 20260416023942 | 53 | 143 | 0.0 | 0.0 | 0.00 | 0.00 | 0.00 | 58 | 1020.2 |
| 20260416023443 | 53 | 150 | 0.0 | 0.0 | 0.00 | 0.00 | 0.00 | 58 | 1020.2 |
| 20260416022945 | 54 | 270 | 0.0 | 1.0 | 0.00 | 0.00 | 0.00 | 58 | 1020.3 |
| 20260416022446 | 54 | 170 | 0.0 | 1.0 | 0.00 | 0.00 | 0.00 | 58 | 1020.2 |
| 20260416021948 | 54 | 176 | 0.0 | 0.0 | 0.00 | 0.00 | 0.00 | 58 | 1020.3 |
| 20260416021449 | 54 | 162 | 0.0 | 0.0 | 0.00 | 0.00 | 0.00 | 57 | 1020.2 |
| 20260416020951 | 54 | 135 | 0.0 | 0.0 | 0.00 | 0.00 | 0.00 | 57 | 1020.2 |
| 20260416020452 | 54 | 135 | 0.0 | 0.0 | 0.00 | 0.00 | 0.00 | 57 | 1020.3 |
| 20260416015954 | 54 | 135 | 0.0 | 0.0 | 0.00 | 0.00 | 0.00 | 57 | 1020.3 |
| 20260416015455 | 54 | 135 | 0.0 | 0.0 | 0.00 | 0.00 | 0.00 | 57 | 1020.4 |
| 20260416014956 | 54 | 266 | 0.0 | 0.0 | 0.00 | 0.00 | 0.00 | 57 | 1020.4 |
| 20260416014458 | 54 | 199 | 0.0 | 0.0 | 0.00 | 0.00 | 0.00 | 57 | 1020.4 |
| 20260416013959 | 54 | 240 | 0.0 | 1.0 | 0.00 | 0.00 | 0.00 | 57 | 1020.4 |
| 20260416013501 | 54 | 225 | 0.0 | 0.0 | 0.00 | 0.00 | 0.00 | 57 | 1020.4 |
| 20260416013002 | 54 | 228 | 0.0 | 0.0 | 0.00 | 0.00 | 0.00 | 57 | 1020.4 |
| 20260416012504 | 54 | 222 | 1.0 | 3.0 | 0.00 | 0.00 | 0.00 | 57 | 1020.3 |
| 20260416012005 | 54 | 223 | 2.0 | 3.0 | 0.00 | 0.00 | 0.00 | 57 | 1020.3 |
| 20260416011507 | 54 | 220 | 1.0 | 4.0 | 0.00 | 0.00 | 0.00 | 57 | 1020.3 |
| 20260416011008 | 54 | 232 | 2.0 | 4.0 | 0.00 | 0.00 | 0.00 | 57 | 1020.4 |
| 20260416010510 | 54 | 220 | 2.0 | 4.0 | 0.00 | 0.00 | 0.00 | 57 | 1020.3 |
| 20260416010011 | 54 | 224 | 0.0 | 1.0 | 0.00 | 0.00 | 0.00 | 57 | 1020.4 |
| 20260416005513 | 54 | 230 | 0.0 | 0.0 | 0.00 | 0.00 | 0.00 | 56 | 1020.5 |
| 20260416005014 | 54 | 221 | 0.0 | 2.0 | 0.00 | 0.00 | 0.00 | 56 | 1020.5 |
| 20260416004516 | 54 | 270 | 1.0 | 2.0 | 0.00 | 0.00 | 0.00 | 56 | 1020.5 |
| 20260416004017 | 54 | 270 | 1.0 | 2.0 | 0.00 | 0.00 | 0.00 | 56 | 1020.5 |
| 20260416003519 | 54 | 234 | 0.0 | 0.0 | 0.00 | 0.00 | 0.00 | 56 | 1020.5 |
| 20260416003020 | 54 | 234 | 0.0 | 1.0 | 0.00 | 0.00 | 0.00 | 56 | 1020.6 |
| 20260416002522 | 54 | 135 | 0.0 | 0.0 | 0.00 | 0.00 | 0.00 | 56 | 1020.6 |
| 20260416002023 | 54 | 135 | 0.0 | 0.0 | 0.00 | 0.00 | 0.00 | 56 | 1020.7 |
| 20260416001525 | 54 | 135 | 0.0 | 0.0 | 0.00 | 0.00 | 0.00 | 56 | 1020.7 |
| 20260416001026 | 54 | 135 | 0.0 | 0.0 | 0.00 | 0.00 | 0.00 | 56 | 1020.7 |
| 20260416000527 | 54 | 121 | 0.0 | 0.0 | 0.00 | 0.00 | 0.00 | 56 | 1020.6 |
| 20260416000029 | 54 | 90 | 0.0 | 0.0 | 0.00 | 0.00 | 0.00 | 56 | 1020.6 |
| 20260415235530 | 54 | 90 | 0.0 | 0.0 | 0.00 | 0.00 | 0.00 | 56 | 1020.6 |
| 20260415235032 | 54 | 110 | 0.0 | 0.0 | 0.00 | 0.00 | 0.00 | 55 | 1020.6 |
| 20260415234533 | 54 | 135 | 0.0 | 0.0 | 0.00 | 0.00 | 0.00 | 55 | 1020.6 |
| 20260415234035 | 54 | 135 | 0.0 | 0.0 | 0.00 | 0.00 | 0.00 | 55 | 1020.6 |
| 20260415233536 | 54 | 131 | 0.0 | 0.0 | 0.00 | 0.00 | 0.00 | 55 | 1020.7 |
| 20260415233038 | 54 | 76 | 0.0 | 1.0 | 0.00 | 0.00 | 0.00 | 55 | 1020.7 |
| 20260415232540 | 54 | 39 | 0.0 | 1.0 | 0.00 | 0.00 | 0.00 | 55 | 1020.7 |
| 20260415232041 | 54 | 218 | 0.0 | 1.0 | 0.00 | 0.00 | 0.00 | 55 | 1020.7 |
| 20260415231542 | 54 | 183 | 0.0 | 0.0 | 0.00 | 0.00 | 0.00 | 55 | 1020.6 |
| 20260415231044 | 54 | 186 | 0.0 | 1.0 | 0.00 | 0.00 | 0.00 | 55 | 1020.6 |
| 20260415230545 | 54 | 180 | 0.0 | 0.0 | 0.00 | 0.00 | 0.00 | 55 | 1020.6 |
| 20260415230047 | 54 | 220 | 0.0 | 2.0 | 0.00 | 0.00 | 0.00 | 55 | 1020.6 |
| 20260415225548 | 54 | 270 | 0.0 | 0.0 | 0.00 | 0.00 | 0.00 | 55 | 1020.6 |
| 20260415225049 | 54 | 270 | 0.0 | 0.0 | 0.00 | 0.00 | 0.00 | 55 | 1020.6 |
| 20260415224551 | 54 | 270 | 0.0 | 0.0 | 0.00 | 0.00 | 0.00 | 55 | 1020.6 |
| 20260415224052 | 54 | 270 | 0.0 | 0.0 | 0.00 | 0.00 | 0.00 | 54 | 1020.6 |
| 20260415223554 | 54 | 270 | 0.0 | 0.0 | 0.00 | 0.00 | 0.00 | 54 | 1020.7 |
| 20260415223055 | 54 | 273 | 0.0 | 1.0 | 0.00 | 0.00 | 0.00 | 54 | 1020.7 |
| 20260415222557 | 54 | 84 | 0.0 | 1.0 | 0.00 | 0.00 | 0.00 | 54 | 1020.7 |
| 20260415222058 | 54 | 90 | 0.0 | 0.0 | 0.00 | 0.00 | 0.00 | 54 | 1020.7 |
| 20260415221600 | 54 | 90 | 0.0 | 0.0 | 0.00 | 0.00 | 0.00 | 54 | 1020.8 |
| 20260415221101 | 54 | 90 | 0.0 | 0.0 | 0.00 | 0.00 | 0.00 | 54 | 1020.8 |
| 20260415220603 | 55 | 90 | 0.0 | 0.0 | 0.00 | 0.00 | 0.00 | 54 | 1020.8 |
| 20260415220104 | 55 | 90 | 0.0 | 0.0 | 0.00 | 0.00 | 0.00 | 54 | 1020.8 |
| 20260415215606 | 55 | 90 | 0.0 | 0.0 | 0.00 | 0.00 | 0.00 | 54 | 1020.8 |
| 20260415215107 | 55 | 90 | 0.0 | 0.0 | 0.00 | 0.00 | 0.00 | 53 | 1020.8 |
| 20260415214609 | 55 | 90 | 0.0 | 0.0 | 0.00 | 0.00 | 0.00 | 53 | 1020.8 |
| 20260415214110 | 54 | 90 | 0.0 | 0.0 | 0.00 | 0.00 | 0.00 | 53 | 1020.8 |
| 20260415213611 | 54 | 90 | 0.0 | 0.0 | 0.00 | 0.00 | 0.00 | 53 | 1020.8 |
| 20260415213113 | 55 | 90 | 0.0 | 0.0 | 0.00 | 0.00 | 0.00 | 53 | 1020.9 |
| 20260415212614 | 55 | 90 | 0.0 | 0.0 | 0.00 | 0.00 | 0.00 | 53 | 1020.8 |
| 20260415212116 | 55 | 90 | 0.0 | 0.0 | 0.00 | 0.00 | 0.00 | 53 | 1020.8 |
| 20260415211617 | 55 | 90 | 0.0 | 0.0 | 0.00 | 0.00 | 0.00 | 53 | 1020.8 |
| 20260415211119 | 55 | 90 | 0.0 | 0.0 | 0.00 | 0.00 | 0.00 | 53 | 1020.8 |
| 20260415210620 | 55 | 90 | 0.0 | 0.0 | 0.00 | 0.00 | 0.00 | 53 | 1020.9 |
| 20260415210122 | 55 | 90 | 0.0 | 0.0 | 0.00 | 0.00 | 0.00 | 52 | 1020.8 |
| 20260415205623 | 55 | 90 | 0.0 | 0.0 | 0.00 | 0.00 | 0.00 | 52 | 1020.9 |
| 20260415205125 | 55 | 90 | 0.0 | 0.0 | 0.00 | 0.00 | 0.00 | 52 | 1021.0 |
| 20260415204626 | 55 | 90 | 0.0 | 0.0 | 0.00 | 0.00 | 0.00 | 52 | 1021.0 |
| 20260415204128 | 55 | 90 | 0.0 | 0.0 | 0.00 | 0.00 | 0.00 | 52 | 1021.1 |
| 20260415203629 | 55 | 90 | 0.0 | 0.0 | 0.00 | 0.00 | 0.00 | 52 | 1021.1 |
| 20260415203131 | 55 | 90 | 0.0 | 0.0 | 0.00 | 0.00 | 0.00 | 52 | 1021.1 |
| 20260415202632 | 55 | 90 | 0.0 | 0.0 | 0.00 | 0.00 | 0.00 | 52 | 1021.1 |
| 20260415202133 | 55 | 90 | 0.0 | 0.0 | 0.00 | 0.00 | 0.00 | 51 | 1021.1 |
| 20260415201635 | 55 | 90 | 0.0 | 0.0 | 0.00 | 0.00 | 0.00 | 51 | 1021.1 |
| 20260415201136 | 55 | 90 | 0.0 | 0.0 | 0.00 | 0.00 | 0.00 | 51 | 1021.1 |
| 20260415200638 | 55 | 90 | 0.0 | 0.0 | 0.00 | 0.00 | 0.00 | 51 | 1021.2 |
| 20260415200139 | 55 | 90 | 0.0 | 0.0 | 0.00 | 0.00 | 0.00 | 51 | 1021.2 |
| 20260415195641 | 55 | 90 | 0.0 | 0.0 | 0.00 | 0.00 | 0.00 | 51 | 1021.1 |
| 20260415195142 | 56 | 90 | 0.0 | 0.0 | 0.00 | 0.00 | 0.00 | 51 | 1021.1 |
| 20260415194644 | 56 | 90 | 0.0 | 0.0 | 0.00 | 0.00 | 0.00 | 51 | 1021.1 |
| 20260415194145 | 56 | 90 | 0.0 | 0.0 | 0.00 | 0.00 | 0.00 | 51 | 1021.1 |
| 20260415193647 | 56 | 90 | 0.0 | 0.0 | 0.00 | 0.00 | 0.00 | 51 | 1021.1 |
| 20260415193148 | 56 | 90 | 0.0 | 0.0 | 0.00 | 0.00 | 0.00 | 50 | 1021.1 |
| 20260415192650 | 56 | 90 | 0.0 | 0.0 | 0.00 | 0.00 | 0.00 | 50 | 1021.1 |
| 20260415192151 | 56 | 90 | 0.0 | 0.0 | 0.00 | 0.00 | 0.00 | 50 | 1021.1 |
| 20260415191653 | 56 | 90 | 0.0 | 0.0 | 0.00 | 0.00 | 0.00 | 50 | 1021.1 |
| 20260415191154 | 57 | 90 | 0.0 | 0.0 | 0.00 | 0.00 | 0.00 | 50 | 1021.1 |
| 20260415190656 | 57 | 90 | 0.0 | 0.0 | 0.00 | 0.00 | 0.00 | 50 | 1021.1 |
| 20260415190157 | 57 | 90 | 0.0 | 0.0 | 0.00 | 0.00 | 0.00 | 49 | 1021.1 |
| 20260415185659 | 57 | 90 | 0.0 | 0.0 | 0.00 | 0.00 | 0.00 | 49 | 1021.1 |
| 20260415185200 | 58 | 90 | 0.0 | 0.0 | 0.00 | 0.00 | 0.00 | 49 | 1021.0 |
| 20260415184702 | 58 | 90 | 0.0 | 0.0 | 0.00 | 0.00 | 0.00 | 49 | 1021.0 |
| 20260415184203 | 58 | 90 | 0.0 | 0.0 | 0.00 | 0.00 | 0.00 | 49 | 1021.1 |
| 20260415183705 | 58 | 90 | 0.0 | 0.0 | 0.00 | 0.00 | 0.00 | 49 | 1021.1 |
| 20260415183206 | 58 | 90 | 0.0 | 0.0 | 0.00 | 0.00 | 0.00 | 49 | 1021.1 |
| 20260415182708 | 58 | 90 | 0.0 | 0.0 | 0.00 | 0.00 | 0.00 | 49 | 1021.1 |
| 20260415182209 | 59 | 90 | 0.0 | 0.0 | 0.00 | 0.00 | 0.00 | 48 | 1021.1 |
| 20260415181710 | 59 | 90 | 0.0 | 0.0 | 0.00 | 0.00 | 0.00 | 48 | 1021.1 |
| 20260415181212 | 59 | 90 | 0.0 | 0.0 | 0.00 | 0.00 | 0.00 | 48 | 1021.0 |
| 20260415180713 | 59 | 90 | 0.0 | 0.0 | 0.00 | 0.00 | 0.00 | 48 | 1020.9 |
| 20260415180215 | 59 | 90 | 0.0 | 0.0 | 0.00 | 0.00 | 0.00 | 48 | 1021.0 |
| 20260415175716 | 60 | 90 | 0.0 | 0.0 | 0.00 | 0.00 | 0.00 | 48 | 1021.0 |
| 20260415175218 | 60 | 90 | 0.0 | 0.0 | 0.00 | 0.00 | 0.00 | 48 | 1020.9 |
| 20260415174719 | 60 | 90 | 0.0 | 0.0 | 0.00 | 0.00 | 0.00 | 48 | 1020.9 |
| 20260415174221 | 60 | 76 | 0.0 | 2.0 | 0.00 | 0.00 | 0.00 | 47 | 1021.0 |
| 20260415173722 | 61 | 90 | 0.0 | 0.0 | 0.00 | 0.00 | 0.00 | 47 | 1021.0 |
| 20260415173224 | 61 | 90 | 0.0 | 0.0 | 0.00 | 0.00 | 0.00 | 47 | 1021.0 |
| 20260415172725 | 61 | 90 | 0.0 | 0.0 | 0.00 | 0.00 | 0.00 | 47 | 1020.9 |
| 20260415172227 | 61 | 90 | 0.0 | 0.0 | 0.00 | 0.00 | 0.00 | 47 | 1020.9 |
| 20260415171728 | 61 | 135 | 0.0 | 2.0 | 0.00 | 0.00 | 0.00 | 47 | 1020.9 |
| 20260415171230 | 62 | 109 | 0.0 | 3.0 | 0.00 | 0.00 | 0.00 | 47 | 1020.9 |
| 20260415170731 | 62 | 110 | 0.0 | 1.0 | 0.00 | 0.00 | 0.00 | 47 | 1021.0 |
| 20260415170233 | 62 | 261 | 0.0 | 1.0 | 0.00 | 0.00 | 0.00 | 46 | 1021.0 |
| 20260415165734 | 63 | 279 | 0.0 | 3.0 | 0.00 | 0.00 | 0.00 | 46 | 1021.0 |
| 20260415165235 | 63 | 92 | 0.0 | 1.0 | 0.00 | 0.00 | 0.00 | 46 | 1021.1 |
| 20260415164737 | 63 | 122 | 0.0 | 0.0 | 0.00 | 0.00 | 0.00 | 46 | 1021.1 |
| 20260415164238 | 64 | 41 | 1.0 | 4.0 | 0.00 | 0.00 | 0.00 | 46 | 1021.1 |
| 20260415163740 | 64 | 88 | 0.0 | 1.0 | 0.00 | 0.00 | 0.00 | 46 | 1021.1 |
| 20260415163242 | 64 | 137 | 0.0 | 1.0 | 0.00 | 0.00 | 0.00 | 46 | 1021.2 |
| 20260415162743 | 65 | 111 | 0.0 | 2.0 | 0.00 | 0.00 | 0.00 | 45 | 1021.3 |
| 20260415162244 | 65 | 131 | 1.0 | 3.0 | 0.00 | 0.00 | 0.00 | 45 | 1021.2 |
| 20260415161746 | 65 | 110 | 1.0 | 2.0 | 0.00 | 0.00 | 0.00 | 45 | 1021.2 |
| 20260415161247 | 66 | 124 | 1.0 | 2.0 | 0.00 | 0.00 | 0.00 | 45 | 1021.2 |
| 20260415160749 | 66 | 124 | 1.0 | 4.0 | 0.00 | 0.00 | 0.00 | 45 | 1021.3 |
| 20260415160250 | 66 | 102 | 0.0 | 1.0 | 0.00 | 0.00 | 0.00 | 45 | 1021.2 |
| 20260415155752 | 67 | 141 | 0.0 | 2.0 | 0.00 | 0.00 | 0.00 | 45 | 1021.3 |
| 20260415155253 | 68 | 69 | 1.0 | 3.0 | 0.00 | 0.00 | 0.00 | 45 | 1021.3 |
| 20260415154755 | 68 | 124 | 1.0 | 2.0 | 0.00 | 0.00 | 0.00 | 44 | 1021.3 |
| 20260415154256 | 69 | 115 | 0.0 | 0.0 | 0.00 | 0.00 | 0.00 | 44 | 1021.3 |
| 20260415153757 | 69 | 11 | 1.0 | 3.0 | 0.00 | 0.00 | 0.00 | 44 | 1021.3 |
| 20260415153259 | 70 | 113 | 1.0 | 3.0 | 0.00 | 0.00 | 0.00 | 44 | 1021.3 |
| 20260415152800 | 70 | 107 | 1.0 | 2.0 | 0.00 | 0.00 | 0.00 | 44 | 1021.3 |
| 20260415152305 | 71 | 351 | 1.0 | 3.0 | 0.00 | 0.00 | 0.00 | 43 | 1021.4 |
| 20260415151803 | 72 | 57 | 1.0 | 4.0 | 0.00 | 0.00 | 0.00 | 43 | 1021.4 |
| 20260415151305 | 73 | 94 | 0.0 | 3.0 | 0.00 | 0.00 | 0.00 | 43 | 1021.4 |
| 20260415150807 | 73 | 82 | 0.0 | 1.0 | 0.00 | 0.00 | 0.00 | 43 | 1021.4 |
| 20260415150308 | 74 | 269 | 1.0 | 3.0 | 0.00 | 0.00 | 0.00 | 42 | 1021.4 |
| 20260415145809 | 75 | 34 | 2.0 | 4.0 | 0.00 | 0.00 | 0.00 | 42 | 1021.5 |
| 20260415145311 | 76 | 12 | 2.0 | 3.0 | 0.00 | 0.00 | 0.00 | 42 | 1021.4 |
| 20260415144812 | 77 | 296 | 1.0 | 3.0 | 0.00 | 0.00 | 0.00 | 42 | 1021.5 |
| 20260415144314 | 77 | 329 | 2.0 | 3.0 | 0.00 | 0.00 | 0.00 | 42 | 1021.5 |
| 20260415143815 | 77 | 318 | 2.0 | 5.0 | 0.00 | 0.00 | 0.00 | 42 | 1021.6 |
| 20260415143316 | 78 | 40 | 1.0 | 3.0 | 0.00 | 0.00 | 0.00 | 42 | 1021.6 |
| 20260415142818 | 78 | 355 | 2.0 | 3.0 | 0.00 | 0.00 | 0.00 | 42 | 1021.7 |
| 20260415142319 | 79 | 207 | 2.0 | 3.0 | 0.00 | 0.00 | 0.00 | 41 | 1021.8 |
| 20260415141821 | 81 | 99 | 2.0 | 4.0 | 0.00 | 0.00 | 0.00 | 41 | 1021.9 |
| 20260415141322 | 82 | 132 | 1.0 | 3.0 | 0.00 | 0.00 | 0.00 | 40 | 1021.9 |